Location: Montreal
(45.5087°N, 73.5540°W)
Time: 18:13:43
(UTC-04:00)

Envisat - Pass Details

Date: 09 February 2023
Orbit: 763 x 765 km, 98.2° (Epoch: 20 March)

Event Time Altitude Azimuth Distance (km) Brightness Sun altitude
Rises 05:18:32 0° 2° (N) 3,242 6.3 -19.1°
Reaches altitude 10° 05:21:16 10° 348° (NNW) 2,311 5.3 -18.6°
Enters shadow 05:23:53 21° 319° (NW) 1,687 4.4 -18.2°
